Kuchera_Ratio
0.0 0.0 0.0 0.0 0.0 0.0 0.0 0.3 4.1 9.5 7.3 1.3 0.1 0.0 0.0 0.0 0.0 0.0 0.0 0.0 0.0 0.0 0.0 0.0 0.0 0.0 0.0 0.0 0.0 0.0 0.0 0.0 0.0 0.0 0.0 0.0 0.0 0.0
0.0 0.0 0.1 0.1 0.2 0.4 0.0 0.0 0.7 4.9 9.3 0.9 0.0 0.0 0.0 0.0 0.0 0.0 0.0 0.0 0.0 0.0 0.0 0.0 0.0 0.0 0.0 0.0 0.0 0.0 0.0 0.0 0.0 0.0 0.0 0.0 0.0 0.0
0.0 0.0 0.8 0.9 1.7 2.5 2.3 1.7 2.9 3.1 7.3 2.8 1.1 0.0 0.7 0.3 0.0 0.0 0.0 0.0 0.0 0.0 0.0 0.0 0.0 0.0 0.0 0.0 0.0 0.0 0.0 0.0 0.0 0.0 0.0 0.0 0.0 0.0
1.2 2.1 3.0 0.0 2.7 3.9 4.4 5.5 4.9 3.3 5.2 7.9 3.4 3.3 2.9 1.1 0.5 1.1 0.0 0.0 0.0 0.0 0.0 0.0 0.0 0.0 0.0 0.0 0.0 0.0 0.0 0.0 0.0 0.0 0.0 0.0 0.0 0.0
4.3 5.4 5.5 5.9 7.5 7.4 7.1 7.9 8.0 4.1 5.5 7.5 8.3 5.3 4.9 3.7 3.1 1.1 1.1 0.0 0.0 0.0 0.0 0.0 0.0 0.0 0.0 0.0 0.0 0.0 0.0 0.0 0.0 0.0 0.0 0.0 0.0 0.0
7.8 8.2 8.9 9.3 9.9 9.5 8.5 8.5 6.9 8.5 8.1 9.1 8.9 8.5 6.5 3.1 4.5 6.3 7.0 4.3 3.3 0.0 0.0 0.0 0.0 0.0 0.0 0.0 0.0 0.0 0.0 0.0 0.0 0.0 0.0 0.0 0.0 0.0
9.3 8.7 8.5 7.3 3.7 4.7 6.7 8.7 8.7 9.9 10.1 10.1 10.3 9.7 9.9 10.3 10.9 7.4 8.8 7.7 6.5 5.3 4.3 1.9 1.6 0.4 0.0 0.0 0.0 0.0 0.0 0.0 0.0 0.0 0.0 0.0 0.0 0.0
11.3 9.7 9.3 6.7 7.5 5.7 5.5 5.3 6.3 10.1 11.3 11.7 11.9 12.4 10.9 9.7 9.5 9.9 11.1 12.4 12.9 6.1 6.7 5.7 4.9 5.3 3.3 0.7 0.0 0.0 0.0 0.0 0.0 0.0 0.0 0.0 0.0 0.0
12.0 11.9 10.5 7.9 7.3 8.7 7.7 7.1 7.1 6.5 7.7 8.7 12.0 12.0 12.0 10.3 10.1 12.0 10.7 11.9 12.0 7.6 8.3 9.9 6.5 7.5 3.7 3.3 0.0 0.0 0.0 0.0 0.0 0.0 0.0 0.0 0.0 0.0
11.7 11.3 10.9 11.3 9.5 7.9 8.5 9.9 9.7 8.7 7.3 7.9 9.7 8.7 8.9 8.1 7.3 8.5 10.1 10.5 9.7 10.5 9.5 12.3 7.7 7.1 5.1 4.0 3.1 0.0 0.0 0.0 0.0 0.0 0.0 0.0 0.0 0.0
11.3 11.1 11.5 11.3 8.7 6.5 10.3 12.3 12.0 10.9 5.3 4.5 4.1 5.3 4.9 4.3 5.3 8.5 11.9 12.6 13.6 13.0 11.0 11.6 9.8 9.2 7.6 5.6 4.0 2.5 0.5 0.3 0.5 0.4 0.4 1.0 1.1 0.0
12.4 9.9 7.9 8.7 7.9 7.7 10.9 12.0 12.6 11.3 9.9 9.3 8.7 6.7 5.3 6.3 5.3 6.9 9.5 12.5 12.9 13.8 10.7 13.1 12.1 10.8 11.6 5.5 3.6 3.4 3.7 3.4 3.5 2.3 1.7 1.9 1.5 1.5
12.7 12.0 10.5 8.3 7.9 7.7 7.9 10.9 11.3 9.3 10.7 10.5 10.3 10.1 9.5 9.5 9.1 7.3 7.3 8.9 11.9 12.5 8.0 10.7 11.9 12.3 12.0 10.0 8.1 6.1 4.8 5.4 5.4 4.1 3.9 2.9 2.1 1.1
12.6 11.3 11.1 8.3 8.1 8.7 10.3 9.7 8.5 9.7 10.3 11.7 11.9 11.7 11.5 11.1 9.5 7.9 7.5 7.9 6.5 7.9 8.1 8.9 10.6 11.5 12.2 12.2 12.2 8.8 6.9 7.2 8.0 8.4 7.9 6.3 4.1 2.7
10.5 10.7 9.9 9.9 11.3 12.8 12.3 11.5 11.9 12.3 12.3 12.7 12.7 12.1 10.7 8.9 8.3 9.1 9.3 8.3 7.7 6.9 6.5 8.3 11.3 10.3 12.0 12.3 12.0 10.0 10.9 10.3 10.8 10.4 11.6 9.5 8.2 7.1
12.3 12.3 13.3 13.0 13.8 13.5 13.1 12.7 12.5 12.0 12.4 12.3 12.3 11.7 10.7 10.9 11.1 10.1 11.3 11.3 11.5 11.1 7.3 6.7 7.3 8.1 11.3 12.1 12.2 12.8 12.4 11.9 11.8 12.1 12.4 12.3 12.6 11.4
13.6 14.1 15.2 15.9 15.6 14.9 14.6 14.0 13.9 13.9 12.8 14.1 13.9 13.4 13.2 12.7 12.4 12.1 11.3 11.1 12.3 12.0 11.0 8.7 7.1 7.5 8.1 8.3 12.2 12.6 12.7 13.1 13.3 13.2 13.3 13.6 14.0 13.2
14.2 15.9 17.8 18.0 17.2 16.0 16.2 16.3 15.6 15.1 14.2 12.4 13.6 13.9 14.4 14.1 13.8 12.9 11.3 11.7 12.2 12.4 11.5 10.3 9.9 12.2 12.7 12.8 9.7 12.4 13.2 14.1 14.4 14.0 13.9 14.5 15.2 13.2
16.6 17.1 18.5 19.1 18.5 17.2 16.4 16.3 16.5 15.4 14.2 13.6 13.0 12.3 12.3 12.1 12.3 12.7 12.3 11.9 12.4 13.1 13.7 13.0 12.4 12.7 14.2 15.0 14.5 11.7 14.2 14.7 14.7 14.8 14.3 14.7 15.3 14.1
17.3 17.9 18.8 18.9 18.7 18.1 17.7 16.3 15.6 15.9 16.7 16.0 15.3 15.1 14.5 13.9 14.0 13.4 13.3 14.1 14.1 14.7 14.8 13.8 13.7 13.1 13.6 14.7 16.0 15.8 11.1 14.5 14.8 16.0 15.8 14.8 13.5 12.1
18.6 18.7 18.8 19.0 19.6 19.4 19.5 19.3 16.3 15.9 17.7 17.9 17.3 16.4 15.9 14.8 13.8 14.4 14.9 14.3 14.4 14.6 15.0 15.0 15.0 13.9 14.7 15.1 16.6 17.8 16.0 10.9 13.3 15.3 15.7 16.3 16.5 15.6
19.9 19.7 19.6 19.6 20.2 20.2 19.7 19.5 18.5 16.5 17.3 17.9 18.2 17.9 17.5 16.7 16.2 15.6 15.5 16.0 15.7 15.9 16.6 15.4 14.0 13.8 15.4 16.1 17.8 18.5 18.4 18.2 14.8 14.0 13.1 14.0 15.5 17.3
20.9 20.9 21.1 20.9 20.5 20.2 20.0 19.8 19.7 19.0 16.9 18.5 18.6 18.3 18.1 17.9 17.7 17.5 17.1 17.1 17.2 17.4 17.0 17.3 16.5 16.6 17.3 17.4 18.3 19.8 19.8 19.2 19.1 17.8 17.3 13.9 12.6 12.6